Regional Weather Roundup
Issued by NWS

Home | Current Version | Previous Version | Graphics & Text | Print | Product List | Glossary On
Versions: 1 2 3 4 5 6 7 8 9 10 11 12 13 14 15 16 17 18 19 20 21 22 23 24 25 26 27 28 29 30 31 32 33 34 35 36 37 38 39 40 41 42 43 44 45 46 47 48 49 50
000
ASUS45 KABQ 060110
RWRNM
WEATHER ROUNDUP FOR NEW MEXICO
NATIONAL WEATHER SERVICE ALBUQUERQUE NM
600 PM MST THU MAR 05 2015

NOTE: "FAIR" MEANS FEW OR NO CLOUDS BELOW 12,000 FEET AGL WITH NO
       SIGNIFICANT WEATHER OR OBSTRUCTIONS TO VISION.

      THIS PRODUCT IS RELEASED AS TWO VERSIONS.  ONE VERSION NEAR
      THE TOP OF THE HOUR CONTAINING PRELIMINARY DATA FROM ALBUQUERQUE
      AND OTHER STATIONS.  A FINAL VERSION WITH ADDITIONAL DATA IS
      ISSUED ABOUT 10 MINUTES AFTER THE HOUR.

NMZ501-503-504-510>518-060200-
NORTHWEST PLATEAU/NORTHCENTRAL MOUNTAINS

CITY           SKY/WX    TMP DP  RH WIND       PRES   REMARKS
FARMINGTON     CLEAR     42  15  33 W10       30.33R
LOS ALAMOS     CLEAR     38  11  33 E3        30.32R
SANTA FE       CLEAR     42  12  29 NE8       30.28S
TAOS           CLEAR     37  12  35 E5        30.32R WCI  34
ANGEL FIRE     FAIR      30   5  34 W3        30.31R

$$
NMZ402-403-502-505>509-060200-
WESTCENTRAL MOUNTAINS/SOUTHWEST MOUNTAINS

CITY           SKY/WX    TMP DP  RH WIND       PRES   REMARKS
GALLUP         CLEAR     46  15  28 N8        30.34R
GRANTS         PTCLDY    45   1  15 N9        30.34S
SILVER CITY    CLEAR     46  16  29 SE13      30.35R

$$
NMZ407-409-411-412-060200-
SOUTHERN DESERTS

CITY           SKY/WX    TMP DP  RH WIND       PRES   REMARKS
LORDSBURG      FAIR      48  21  34 SE13      30.31R
DEMING         CLEAR     50  19  29 SE9       30.33S
LAS CRUCES     CLEAR     47  19  33 S7        30.36R
HOLLOMAN AFB   CLEAR     48  18  30 S8        30.34R
ALAMOGORDO     CLEAR     46  23  39 S7        30.35S
T OR C         CLEAR     51   2  13 CALM      30.31S

$$
NMZ519>523-060200-
CENTRAL VALLEYS/CENTRAL HIGHLANDS

CITY           SKY/WX    TMP DP  RH WIND       PRES   REMARKS
ALBUQUERQUE    CLEAR     51   0  12 N16       30.30S
DOUBLE EAGLE   CLEAR     46   0  14 NW9       30.31S
MORIARTY ARPT  FAIR      43   8  23 W8        30.31R
CLINES CORNERS CLEAR     40   6  24 W15       30.27R WCI  32
BELEN          FAIR      48  11  22 SE5       30.30F
SOCORRO          N/A     50  14  23 S5        30.31R

$$
NMZ524>526-539-540-060200-
SOUTHCENTRAL MOUNTAINS

CITY           SKY/WX    TMP DP  RH WIND       PRES   REMARKS
RUIDOSO        CLEAR     37  16  41 NW7       30.34R WCI  32

$$
NMZ527>531-060200-
NORTHEAST HIGHLANDS/NORTHEAST PLAINS

CITY           SKY/WX    TMP DP  RH WIND       PRES   REMARKS
LAS VEGAS      CLEAR     36  23  59 S13       30.25R WCI  27
RATON          CLEAR     35  25  66 CALM      30.25R
CLAYTON        NOT AVBL

$$
NMZ532>537-060200-
EASTCENTRAL PLAINS

CITY           SKY/WX    TMP DP  RH WIND       PRES   REMARKS
TUCUMCARI      CLEAR     39  22  50 S12       30.29R WCI  32
CANNON AFB     CLEAR     38  19  45 SW12      30.32S WCI  31
CLOVIS AIRPORT CLEAR     37  19  48 S12       30.33S WCI  30

$$
NMZ028-029-538-060200-
SOUTHEAST PLAINS

CITY           SKY/WX    TMP DP  RH WIND       PRES   REMARKS
ROSWELL        CLEAR     39  23  52 S15       30.37S WCI  31
ARTESIA        CLEAR     37  25  60 SE15      30.40S WCI  28
CARLSBAD       CLEAR     38  25  59 S10       30.40F WCI  31
HOBBS          CLEAR     37  25  60 S8        30.42S WCI  31


$$


USA.gov is the U.S. government's official web portal to all federal, state and local government web resources and services.